Regional Weather Roundup
Issued by NWS Glasgow, MT

Current Version | Previous Version | Text Only | Print | Product List | Glossary On
Versions: 1 2 3 4 5 6 7 8 9 10 11 12 13 14 15 16 17 18 19 20 21 22 23 24 25 26 27 28 29 30 31 32 33 34 35 36 37 38 39 40 41 42 43 44 45 46 47 48 49 50
000 ASUS45 KGGW 021615 RWRGGW HOURLY REGIONAL WEATHER ROUNDUP FOR NORTHEAST MONTANA NATIONAL WEATHER SERVICE GLASGOW MONTANA 900 AM MST TUE MAR 02 2021 NOTE: "FAIR" INDICATES FEW OR NO CLOUDS BELOW 12,000 FEET WITH NO SIGNIFICANT WEATHER AND/OR OBSTRUCTIONS TO VISISBILITY. NORTHEAST MONTANA CITY SKY/WX TMP DP RH WIND PRES REMARKS GLASGOW SUNNY 44 27 51 NW9 29.82R PLENTYWOOD N/A 39 28 64 W14G24 N/A WOLF POINT SUNNY 45 28 51 W5 29.82R JORDAN N/A 48 27 44 W14 29.84R WINNETT N/A 46 19 34 SW12G20 N/A SIDNEY SUNNY 47 27 45 W18G26 29.81R GLENDIVE SUNNY 49 25 39 W16 29.85R MALTA N/A 42 24 49 W5 N/A FORT PECK REPORTS CITY SKY/WX TMP DP RH WIND PRES REMARKS FORT PECK N/A 43 29 57 W12 N/A THE PINES N/A 49 23 36 W10G23 N/A SOUTHEAST MONTANA CITY SKY/WX TMP DP RH WIND PRES REMARKS BILLINGS PTSUNNY 43 20 39 W14 29.96R MILES CITY PTSUNNY 43 23 45 W13 29.89R BAKER SUNNY 44 24 45 W13 29.86S LIVINGSTON MOSUNNY 38 17 42 SW28G39 29.97F CENTRAL MONTANA CITY SKY/WX TMP DP RH WIND PRES REMARKS HAVRE SUNNY 40 29 64 SW18 29.81R LEWISTOWN PTSUNNY 38 25 59 SW20 29.89R GREAT FALLS SUNNY 44 21 40 SW23G35 29.87R CUT BANK PTSUNNY 41 24 51 SW28G33 29.80R HELENA PTSUNNY 35 25 66 CALM 29.96S BUTTE CLOUDY 31 20 63 N5 30.00R BOZEMAN CLOUDY 28 20 71 SE5 30.01S WESTERN MONTANA CITY SKY/WX TMP DP RH WIND PRES REMARKS MISSOULA CLOUDY 32 30 92 E5 29.99S KALISPELL NOT AVBL NORTH DAKOTA CITY SKY/WX TMP DP RH WIND PRES REMARKS WILLISTON SUNNY 43 27 53 W17 29.76R DICKINSON SUNNY 48 25 40 W17 29.78R MINOT SUNNY 42 28 57 W15 29.69R BISMARCK SUNNY 49 26 41 W13 29.76R SOUTHERN SASKATCHEWAN CITY SKY/WX TMP DP RH WIND PRES REMARKS REGINA MOSUNNY 30 25 80 NW18 29.73R MOOSE JAW MOSUNNY 34 27 75 NW16 29.76R ESTEVAN SUNNY 34 28 80 W17G25 29.71R SWIFT CURRENT SUNNY 32 27 80 W9 29.74R

USA.gov is the U.S. government's official web portal to all federal, state and local government web resources and services.